Wind_Speed
20 19 17 16 14 11 9 8 5 5 6 7 9 11 14 17 19 21 24 27 28 29 29 29 30 32 32 34 35 35 35 35 34 34 34 34 33 32 32 31 30 29 30
20 19 18 17 16 14 12 10 8 6 5 5 6 7 9 11 14 17 19 22 25 26 27 27 27 29 30 31 32 32 33 33 32 32 31 31 31 30 30 30 28 27 27
22 21 20 19 17 15 14 12 10 8 7 6 4 5 7 9 11 13 16 18 21 23 25 25 26 26 27 28 29 30 29 29 29 30 29 28 29 29 29 29 29 28 26
23 22 21 21 19 17 15 14 12 10 8 7 5 4 4 6 9 11 12 15 17 19 20 20 21 22 24 24 24 25 26 27 27 28 28 27 27 27 27 27 27 27 27
23 23 22 22 21 19 18 16 15 13 11 8 6 4 2 3 4 6 9 11 12 15 17 18 18 19 21 22 23 24 24 25 26 26 26 26 25 26 26 25 26 26 26
23 23 23 22 22 21 20 19 17 16 13 11 9 7 5 4 2 3 5 6 9 11 14 15 15 16 17 19 21 22 22 23 25 25 25 25 25 25 25 25 25 25 24
24 23 23 22 22 22 21 20 19 18 16 14 11 9 8 7 5 3 1 3 6 8 10 11 12 13 14 15 16 18 20 21 22 23 23 24 23 24 24 24 24 23 23
23 23 23 23 23 22 21 20 20 19 18 16 14 12 10 9 8 6 3 1 2 4 6 7 8 9 11 12 14 15 16 18 19 20 21 21 22 22 22 22 22 22 22
23 23 23 23 23 23 22 21 20 19 19 18 16 15 13 12 10 8 6 4 2 0 3 5 6 7 8 9 11 13 14 14 16 17 18 18 19 19 19 19 19 20 20
23 23 23 23 23 23 22 22 21 20 19 18 18 17 15 13 11 10 8 6 5 3 2 2 3 4 5 7 8 10 11 12 13 15 16 16 16 17 17 17 17 17 16
21 22 22 22 22 22 22 22 21 20 20 19 18 17 17 16 14 12 10 9 7 6 4 3 3 3 3 5 6 6 7 8 10 12 13 14 14 15 15 15 14 13 13
20 20 21 21 21 21 22 22 22 21 20 20 19 18 18 17 15 14 12 11 10 8 7 6 5 4 4 4 5 5 6 7 8 9 11 11 11 11 11 12 12 11 11
19 19 20 20 20 21 21 21 21 21 20 20 19 19 18 17 16 15 14 12 11 10 9 7 6 6 5 5 5 6 7 7 7 8 9 10 10 10 10 10 10 10 10
17 18 18 19 19 19 20 20 20 20 20 19 19 19 18 18 17 15 14 13 12 10 9 9 8 7 7 7 6 6 7 7 7 7 7 8 8 9 9 9 9 9 9
15 16 16 17 17 17 18 18 19 19 19 19 18 18 18 17 17 16 15 14 13 12 11 10 9 9 8 8 7 6 6 6 6 7 7 7 7 7 7 7 8 8 7
13 14 14 15 15 16 16 16 17 17 17 17 17 17 16 16 16 15 14 14 13 12 12 11 11 10 10 9 9 8 8 7 7 6 6 6 6 6 6 6 6 6 6
13 13 13 13 13 14 14 14 15 15 15 15 16 15 15 15 15 14 14 13 13 12 12 12 11 11 10 9 9 8 8 8 7 6 6 6 6 5 5 5 5 5 5
13 12 12 12 12 12 13 13 13 13 13 14 14 14 13 13 13 13 13 12 12 11 11 10 10 10 10 9 8 8 7 7 6 6 6 5 4 4 3 3 3 4 4
14 13 13 12 12 11 11 11 12 12 11 11 11 11 11 11 11 11 10 10 10 10 9 9 9 8 8 7 7 6 6 6 5 5 4 4 3 2 2 2 2 2 3
16 15 14 13 13 12 11 11 11 11 10 10 9 9 9 9 9 9 8 8 8 7 7 7 7 6 6 5 5 5 5 4 3 3 2 2 1 1 1 1 2 2 3
19 18 16 15 14 14 13 12 11 11 10 10 9 9 8 8 7 7 7 6 6 5 5 5 4 4 4 3 3 3 3 2 2 1 0 0 1 1 2 2 3 3 3
22 20 19 18 17 16 15 14 13 12 11 11 10 9 9 8 7 7 6 6 5 5 4 4 3 2 2 1 1 1 1 1 1 1 2 2 2 3 3 3 4 4 4
26 24 23 21 20 19 18 17 16 14 13 12 12 11 10 10 9 8 8 7 7 6 6 5 5 4 4 4 4 4 4 4 4 4 4 4 4 4 4 5 5 5 5
29 28 26 25 24 22 21 20 19 18 17 15 14 14 13 12 12 11 11 10 10 9 9 9 8 8 7 7 7 7 7 7 7 7 7 7 7 7 7 7 7 8 8
34 32 30 29 28 26 25 23 22 21 20 19 18 17 17 16 15 14 14 13 13 12 12 11 11 11 11 11 10 10 11 11 11 11 11 11 11 11 11 11 11 11 11
38 36 35 33 32 30 29 28 26 25 24 23 22 21 20 20 19 18 17 17 16 16 15 15 15 15 14 14 14 14 14 14 14 15 15 15 15 15 15 15 15 15 15
Wind_Direction
22 21 18 17 14 9 4 356 339 306 288 269 258 248 241 237 234 231 233 232 233 235 236 237 238 238 239 238 238 238 238 238 240 241 241 243 246 249 248 250 251 252 256
22 22 22 21 19 17 15 12 6 354 329 302 275 256 245 238 232 230 231 231 231 231 233 235 235 237 238 237 237 237 237 237 239 240 241 244 246 247 248 247 249 251 254
25 25 24 23 23 22 20 17 13 7 356 341 313 279 256 246 240 238 236 232 232 231 232 235 235 237 236 236 238 238 236 237 239 239 240 241 244 244 245 246 249 251 251
28 28 28 27 26 26 24 22 18 13 5 357 336 308 275 260 247 240 238 231 230 230 231 233 234 236 237 237 237 237 235 235 237 238 238 239 241 242 244 247 248 249 251
29 29 29 29 29 29 29 27 24 21 19 15 15 2 320 280 257 247 239 231 230 229 230 232 234 235 237 238 236 234 232 233 236 238 237 237 240 243 242 244 246 248 249
28 29 30 30 31 31 31 31 31 30 29 29 32 33 26 6 326 290 240 232 234 230 230 233 233 234 236 238 237 234 234 235 236 237 236 235 238 239 240 243 245 247 249
28 29 30 31 32 32 32 32 33 33 34 36 35 34 28 23 20 5 281 247 236 235 234 234 232 232 233 236 236 235 235 235 234 232 230 232 234 237 240 244 244 245 246
29 30 32 32 32 32 33 34 34 35 37 39 40 38 36 34 31 30 26 341 249 229 225 227 225 224 227 230 230 231 233 232 229 226 226 228 231 234 237 242 243 243 244
30 30 31 32 32 33 34 35 36 37 38 39 40 39 36 33 33 32 39 38 34 219 213 212 213 215 218 221 221 224 229 230 227 225 225 226 228 230 233 236 237 237 240
30 30 31 32 33 33 34 35 36 38 38 38 38 36 35 34 36 38 43 46 51 72 107 154 176 197 207 212 215 216 221 225 224 222 221 220 223 226 229 230 232 234 237
27 29 30 31 31 32 32 34 35 36 36 36 36 35 34 35 38 41 45 49 54 64 78 95 117 141 161 179 189 197 205 207 208 210 210 212 214 218 219 221 224 226 228
24 25 27 28 29 30 31 33 33 34 34 35 35 35 35 38 42 45 49 52 57 66 75 85 97 110 126 140 154 164 170 175 181 188 193 198 200 203 208 211 214 215 219
20 22 23 25 27 29 30 32 32 32 33 34 35 36 37 39 43 47 51 55 58 66 72 81 90 99 111 115 123 141 151 154 159 167 175 182 189 196 200 200 202 208 216
13 16 19 21 23 26 28 29 30 31 32 33 34 35 36 40 43 46 50 54 58 63 69 73 79 87 96 105 113 124 138 144 151 159 166 177 186 193 198 202 207 210 214
5 8 12 15 17 20 22 24 27 29 31 32 33 34 37 40 43 47 51 54 58 61 65 69 75 84 91 99 104 109 118 132 145 155 162 168 178 185 192 198 205 210 213
353 357 1 5 9 12 15 18 22 25 27 30 32 34 36 39 42 45 49 54 58 63 66 69 74 81 89 96 101 101 106 115 126 141 158 166 166 170 182 192 201 208 215
337 343 348 353 358 2 7 10 14 18 22 26 29 32 35 38 41 45 48 52 58 63 67 71 75 79 87 96 101 102 102 105 113 121 129 138 147 156 168 180 193 201 208
322 327 332 338 344 350 356 1 6 10 15 20 24 28 32 35 39 44 48 53 57 61 64 69 73 78 83 91 96 101 104 107 109 113 119 122 127 136 150 167 185 197 205
307 311 316 321 326 333 339 346 352 358 3 9 14 20 25 29 33 37 42 47 51 54 58 62 67 73 79 86 90 93 97 102 105 109 115 120 125 132 148 172 192 205 209
295 297 300 305 310 314 320 326 333 340 346 352 358 4 11 17 21 26 30 35 40 46 51 55 59 65 72 81 87 90 92 96 99 100 108 121 141 172 203 228 241 239 228
286 287 289 291 295 299 303 307 313 319 324 330 336 340 346 352 358 3 7 12 16 22 30 36 42 49 57 67 75 78 76 78 81 77 78 235 250 254 255 257 262 260 251
278 279 280 281 283 286 290 293 297 301 305 309 313 317 321 325 328 332 337 341 344 346 347 354 1 3 2 355 346 342 344 345 331 315 301 289 278 274 272 270 269 264 260
272 273 273 274 275 277 279 282 284 287 291 294 296 299 301 303 306 307 310 311 311 312 311 309 308 307 302 296 293 290 288 289 292 293 291 289 288 285 280 276 272 268 267
268 268 269 269 270 271 273 274 276 278 279 282 285 287 289 291 292 293 293 295 296 296 295 293 290 289 287 285 284 284 281 281 283 285 287 288 287 286 283 280 277 275 273
266 266 266 266 266 267 268 269 271 272 273 274 276 279 281 282 284 285 285 285 286 286 286 286 284 283 281 280 280 279 279 279 280 281 282 282 283 282 281 280 279 278 277
263 263 263 263 263 264 265 266 267 268 269 270 272 273 275 277 278 279 280 281 281 281 281 280 280 280 279 279 278 278 278 278 278 279 279 280 281 280 280 280 279 279 278
Height
5784 5780 5776 5773 5769 5766 5763 5761 5760 5758 5758 5757 5757 5757 5758 5760 5761 5764 5766 5770 5773 5776 5780 5783 5786 5789 5792 5795 5798 5801 5804 5808 5812 5814 5817 5820 5823 5825 5827 5829 5830 5832 5834
5786 5782 5778 5774 5770 5767 5764 5761 5759 5758 5756 5755 5755 5755 5755 5756 5757 5759 5761 5764 5767 5770 5773 5776 5779 5782 5785 5787 5790 5793 5796 5800 5803 5806 5809 5812 5815 5817 5819 5821 5823 5825 5826
5788 5784 5779 5775 5772 5768 5765 5762 5760 5758 5756 5754 5753 5753 5753 5753 5754 5755 5757 5759 5761 5764 5767 5770 5772 5775 5777 5780 5783 5786 5789 5792 5795 5798 5801 5804 5807 5809 5812 5814 5816 5818 5819
5791 5786 5782 5778 5773 5770 5766 5763 5760 5758 5756 5754 5752 5751 5751 5751 5752 5752 5753 5755 5757 5759 5761 5763 5766 5768 5771 5773 5776 5779 5782 5785 5788 5791 5794 5797 5800 5802 5804 5807 5809 5811 5812
5794 5789 5785 5780 5776 5772 5768 5765 5762 5759 5756 5754 5752 5751 5750 5750 5749 5750 5750 5751 5752 5754 5756 5758 5761 5763 5765 5767 5769 5772 5775 5778 5781 5784 5787 5790 5793 5795 5798 5800 5802 5804 5805
5797 5792 5788 5783 5779 5774 5771 5767 5763 5760 5757 5754 5752 5751 5749 5749 5748 5747 5747 5749 5750 5751 5753 5754 5756 5758 5759 5761 5763 5766 5769 5772 5775 5778 5781 5784 5787 5789 5792 5794 5796 5798 5799
5801 5796 5791 5787 5782 5778 5774 5770 5766 5763 5759 5756 5754 5752 5750 5749 5748 5747 5746 5747 5748 5749 5750 5751 5752 5753 5755 5757 5759 5761 5763 5766 5769 5772 5775 5777 5780 5783 5786 5788 5790 5792 5793
5804 5799 5795 5790 5786 5782 5777 5773 5769 5766 5762 5759 5756 5754 5752 5750 5748 5747 5746 5746 5746 5746 5747 5748 5749 5750 5751 5753 5755 5757 5759 5761 5764 5766 5769 5772 5775 5777 5780 5782 5784 5786 5787
5808 5803 5799 5794 5790 5785 5781 5777 5773 5769 5766 5762 5759 5756 5754 5752 5750 5748 5747 5746 5746 5745 5746 5746 5747 5748 5749 5750 5752 5753 5755 5757 5759 5762 5764 5767 5770 5772 5775 5777 5779 5781 5783
5811 5807 5802 5798 5794 5789 5785 5781 5777 5773 5769 5766 5762 5759 5756 5753 5751 5749 5748 5747 5746 5746 5745 5746 5746 5747 5747 5748 5749 5751 5752 5754 5756 5758 5760 5763 5766 5768 5771 5773 5775 5777 5779
5815 5810 5806 5802 5798 5793 5789 5785 5781 5777 5773 5769 5766 5762 5759 5756 5753 5751 5749 5748 5747 5746 5746 5746 5746 5746 5747 5748 5748 5749 5751 5752 5753 5755 5758 5760 5763 5765 5768 5770 5772 5774 5776
5818 5814 5809 5805 5801 5797 5793 5789 5784 5780 5777 5773 5769 5766 5762 5759 5756 5754 5752 5751 5749 5748 5748 5747 5747 5748 5748 5748 5749 5750 5751 5752 5753 5755 5757 5759 5762 5764 5766 5768 5770 5771 5773
5820 5816 5813 5809 5805 5800 5796 5792 5788 5784 5780 5777 5773 5770 5766 5763 5760 5758 5755 5754 5752 5751 5750 5750 5749 5749 5750 5750 5750 5751 5752 5753 5754 5755 5757 5759 5761 5763 5765 5766 5768 5770 5771
5822 5819 5815 5811 5808 5804 5800 5796 5792 5788 5784 5780 5777 5773 5770 5767 5764 5761 5759 5757 5756 5754 5753 5753 5752 5751 5751 5752 5752 5752 5753 5754 5755 5756 5758 5759 5761 5762 5764 5766 5767 5768 5770
5823 5820 5817 5813 5810 5806 5803 5799 5795 5792 5788 5784 5781 5777 5774 5771 5768 5765 5763 5761 5759 5758 5757 5756 5755 5754 5754 5754 5754 5755 5755 5756 5756 5758 5759 5760 5761 5762 5764 5765 5766 5767 5768
5824 5821 5818 5815 5811 5808 5805 5801 5798 5795 5791 5787 5784 5781 5778 5775 5772 5769 5767 5765 5763 5762 5760 5759 5758 5757 5757 5757 5757 5757 5757 5758 5759 5759 5760 5761 5762 5763 5764 5764 5765 5766 5767
5823 5821 5818 5815 5812 5809 5806 5803 5800 5797 5794 5790 5787 5784 5781 5778 5776 5773 5771 5769 5767 5766 5764 5763 5762 5761 5760 5760 5760 5760 5760 5760 5761 5761 5761 5762 5763 5763 5764 5764 5764 5765 5765
5822 5820 5817 5815 5812 5809 5807 5804 5801 5798 5795 5793 5790 5787 5784 5781 5779 5777 5775 5773 5771 5769 5768 5767 5765 5765 5764 5763 5763 5763 5763 5763 5763 5763 5763 5763 5763 5764 5764 5764 5764 5764 5764
5820 5818 5815 5813 5811 5809 5806 5804 5801 5799 5796 5794 5791 5789 5786 5784 5781 5779 5777 5776 5774 5772 5771 5770 5769 5768 5767 5766 5765 5765 5765 5765 5764 5764 5764 5764 5764 5764 5764 5764 5764 5764 5764
5816 5814 5813 5811 5809 5807 5805 5803 5800 5798 5796 5794 5792 5789 5787 5785 5783 5781 5779 5778 5776 5775 5773 5772 5771 5770 5769 5768 5768 5767 5767 5766 5766 5765 5765 5765 5765 5764 5764 5764 5764 5763 5763
5811 5810 5808 5807 5805 5804 5802 5800 5798 5797 5795 5793 5791 5789 5787 5785 5784 5782 5780 5779 5777 5776 5774 5773 5772 5771 5771 5770 5769 5768 5768 5767 5767 5766 5765 5765 5765 5764 5764 5763 5763 5762 5762
5805 5804 5803 5802 5801 5800 5798 5797 5795 5794 5792 5790 5789 5787 5786 5784 5783 5781 5780 5778 5777 5776 5775 5774 5773 5772 5771 5770 5770 5769 5768 5767 5767 5766 5765 5765 5764 5764 5763 5762 5762 5761 5761
5798 5797 5797 5796 5795 5794 5793 5792 5791 5790 5789 5787 5786 5784 5783 5782 5781 5779 5778 5777 5776 5775 5774 5773 5772 5771 5770 5770 5769 5768 5768 5767 5766 5765 5765 5764 5763 5763 5762 5761 5761 5760 5759
5790 5789 5789 5788 5788 5787 5787 5786 5785 5784 5783 5783 5782 5780 5779 5778 5777 5776 5775 5774 5773 5772 5771 5770 5770 5769 5768 5767 5767 5766 5766 5765 5764 5764 5763 5762 5761 5761 5760 5759 5759 5758 5757
5780 5780 5780 5780 5779 5779 5779 5778 5778 5778 5777 5777 5776 5775 5774 5773 5772 5772 5771 5770 5769 5768 5768 5767 5766 5765 5765 5764 5764 5763 5762 5762 5761 5761 5760 5759 5759 5758 5757 5756 5756 5755 5754
5768 5769 5769 5770 5770 5770 5770 5770 5770 5770 5769 5769 5769 5768 5768 5767 5766 5766 5765 5765 5764 5763 5763 5762 5761 5761 5760 5760 5759 5759 5758 5757 5757 5756 5756 5755 5754 5754 5753 5752 5751 5751 5750